Content
SEND FEEDBACK

Daily
Averages
Monthly
Summary
United States of America

LIVONIA, MICHIGAN


Home > North America > United States > Michigan
Elevation: 778 feet     Latitude: 42 13N     Longitude: 083 31W

WEATHER
 
SELECT A DAY
Number of Records: 205,690;   Date Range: 1/1/95 - 10/20/14
 
SHARE

PRINT THIS DATA

[ ← Previous Day ]
WEATHER ALMANAC - JANUARY 31, 2013
[ Next Day → ]
[ °C ]   °F
Weather ElementAverageHighLow
Temperature22.5 °F24.8 °F (8:53 am)19 °F (9:53 pm)
Dewpoint13.9 °F17.6 °F (8:53 am)10 °F (6:53 pm)
Humidity69.8 %77 % (9:53 pm)60 % (6:53 pm)
Barometer29.77 in29.96 in (10:43 am)29.57 in (8:53 am)
Wind Speed16.9 mph24.2 mph (1:53 pm)
Wind Gust32.2 mph (9:53 am)
Weather ElementAverage
Visibility4.9 mi
Wind DirectionWSW (259.1 °)

Weather ElementTotal
Precipitation---
Heating Degree Days43.1 (Base 65)
Averaged from 35 records on January 31, 2013
WEATHER CONDITIONS BREAKOUT
WIND DIRECTION BREAKOUT
WEATHER BY HOUR - JANUARY 31, 2013
[ °C ]   °F
Local TimeTemperatureDewpointHumidityBarometerVisibilityWind DirectionWind SpeedGust SpeedPrecipitationEventsConditions
8:53 AM24.8 °F17.6 °F74 %29.57 in2.0 miWNW (290°)18.4 mphSnowLight Snow
9:53 AM24.8 °F14.0 °F64 %29.62 in10.0 miWest (260°)23.0 mph32.2 mphOvercast
10:43 AM24.8 °F15.8 °F69 %29.96 in8.0 miWest (270°)16.1 mph24.2 mphSnowLight Snow
11:42 AM24.8 °F17.6 °F74 %29.67 in1.0 miWest (260°)15.0 mph0.00 inSnowLight Snow
11:45 AM24.8 °F15.8 °F69 %29.67 in4.0 miWSW (250°)21.9 mph27.6 mph0.00 inSnowLight Snow
11:53 AM24.8 °F14.0 °F64 %29.68 in10.0 miWest (260°)21.9 mph31.1 mphOvercast
1:53 PM24.1 °F14.0 °F65 %29.72 in7.0 miWest (260°)24.2 mph32.2 mph0.00 inSnowLight Snow
2:08 PM24.8 °F15.8 °F69 %29.70 in1.5 miWest (260°)20.7 mph31.1 mph0.00 inSnowLight Snow
2:42 PM24.8 °F15.8 °F69 %29.71 in3.0 miWest (270°)15.0 mph23.0 mph0.00 inSnowLight Snow
2:51 PM24.8 °F15.8 °F69 %29.71 in1.8 miWest (270°)15.0 mph25.3 mph0.00 inSnowLight Snow
2:53 PM24.1 °F15.1 °F69 %29.73 in1.2 miWest (280°)17.3 mph25.3 mph0.00 inSnowLight Snow
3:08 PM24.8 °F15.8 °F69 %29.71 in2.5 miWest (280°)16.1 mph25.3 mph0.00 inSnowLight Snow
3:16 PM24.8 °F15.8 °F69 %29.72 in8.0 miWest (270°)16.1 mph24.2 mph0.00 inOvercast
3:33 PM24.8 °F14.0 °F64 %29.72 in10.0 miWest (270°)15.0 mph0.00 inOvercast
3:42 PM23.0 °F15.8 °F74 %29.73 in1.8 miWest (270°)21.9 mph25.3 mph0.00 inSnowLight Snow
3:51 PM23.0 °F15.8 °F74 %29.74 in0.5 miWest (260°)16.1 mph0.00 inSnowSnow
3:53 PM23.0 °F16.0 °F74 %29.75 in0.5 miWest (260°)17.3 mph0.00 inSnowSnow
3:58 PM24.8 °F15.8 °F69 %29.74 in3.0 miWest (260°)19.6 mph28.8 mph0.00 inSnowLight Snow
4:06 PM24.8 °F14.0 °F64 %29.74 in9.0 miWest (260°)23.0 mph27.6 mph0.00 inOvercast
4:53 PM23.0 °F12.9 °F65 %29.77 in10.0 miWSW (250°)24.2 mph29.9 mph0.00 inOvercast
5:32 PM21.2 °F12.2 °F68 %29.76 in4.0 miWest (270°)20.7 mph0.00 inSnowLight Snow
5:42 PM21.2 °F12.2 °F68 %29.76 in9.0 miWest (260°)17.3 mph0.00 inOvercast
5:53 PM21.9 °F10.9 °F63 %29.79 in10.0 miWSW (250°)17.3 mph0.00 inOvercast
6:53 PM21.9 °F10.0 °F60 %29.82 in10.0 miWest (260°)17.3 mph25.3 mphOvercast
7:53 PM21.0 °F10.9 °F65 %29.85 in9.0 miWSW (250°)16.1 mph0.00 inOvercast
8:53 PM19.9 °F12.9 °F74 %29.86 in4.0 miWSW (240°)16.1 mph0.00 inSnowLight Snow
9:53 PM19.0 °F12.9 °F77 %29.88 in4.0 miWSW (240°)12.7 mph0.00 inSnowLight Snow
10:08 PM19.4 °F12.2 °F74 %29.86 in4.0 miWSW (240°)12.7 mph0.00 inSnowLight Snow
10:23 PM19.4 °F12.2 °F74 %29.86 in2.0 miWSW (240°)11.5 mph0.00 inSnowLight Snow
10:50 PM19.4 °F12.2 °F74 %29.86 in1.8 miWSW (250°)12.7 mph0.00 inSnowLight Snow
10:53 PM19.0 °F12.0 °F74 %29.89 in1.8 miWSW (250°)11.5 mph0.00 inSnowLight Snow
11:04 PM19.4 °F12.2 °F74 %29.87 in2.5 miWSW (250°)13.8 mph0.00 inSnowLight Snow
11:14 PM19.4 °F12.2 °F74 %29.86 in4.0 miWSW (250°)12.7 mph0.00 inSnowLight Snow
11:51 PM19.4 °F12.2 °F74 %29.87 in4.0 miWSW (250°)11.5 mph0.00 inSnowLight Snow
11:53 PM19.0 °F12.0 °F74 %29.90 in5.0 miWest (260°)11.5 mph0.00 inSnowLight Snow
Hourly data recorded from KYIP, located miles away from Livonia, Michigan







STORIES FROM OUR PARTNERS